This is the latest recevied weather packets stored in our database for station/object GW7204. If no packets are shown the sender has not sent any weather packets the latest 10 day(s).
| Time | Temp. | Humidity | Pressure | Rain* | Wind** | Luminosity | Snow |
|---|---|---|---|---|---|---|---|
| 1777888097 | 5° C | 98% | 1010.8 hPa | 0 mm | - | - | - |
| 1777885574 | 5° C | 96% | 1011.1 hPa | 0 mm | - | - | - |
| 1777884141 | 6.11° C | 95% | 1011.1 hPa | 0 mm | - | - | - |
| 1777882695 | 6.67° C | 91% | 1011.1 hPa | 0 mm | - | - | - |
| 1777882336 | 6.67° C | 91% | 1011.1 hPa | 0 mm | - | - | - |
| 1777880176 | 7.22° C | 91% | 1011.5 hPa | 0 mm | - | - | - |
| 1777873000 | 9.44° C | 74% | 1012.8 hPa | 0 mm | - | - | - |
| 1777868671 | 8.89° C | 84% | 1013.2 hPa | 0 mm | - | - | - |
| 1777867604 | 8.33° C | 84% | 1013.5 hPa | 0 mm | - | - | - |
| 1777865772 | 8.89° C | 87% | 1013.5 hPa | 0 mm | - | - | - |
| 1777865436 | 8.33° C | 87% | 1013.2 hPa | 0 mm | - | - | - |
| 1777863254 | 8.89° C | 85% | 1013.8 hPa | 0 mm | - | - | - |
| 1777862540 | 9.44° C | 85% | 1013.8 hPa | 0 mm | - | - | - |
| 1777861827 | 9.44° C | 82% | 1013.8 hPa | 0 mm | - | - | - |
| 1777861114 | 9.44° C | 79% | 1013.8 hPa | 0 mm | - | - | - |
| 1777860380 | 10° C | 79% | 1013.8 hPa | 0 mm | - | - | - |
| 1777857134 | 11.11° C | 67% | 1013.5 hPa | 0 mm | - | - | - |
| 1777856078 | 11.67° C | 55% | 1013.2 hPa | 0 mm | - | - | - |
| 1777765721 | 8.89° C | 51% | 1015.5 hPa | 0 mm | - | - | - |
| 1777763532 | 9.44° C | 45% | 1015.5 hPa | 0 mm | - | - | - |
| 1777758852 | 10° C | 44% | 1015.2 hPa | 0 mm | - | - | - |
| 1777755634 | 10.56° C | 44% | 1014.9 hPa | 0 mm | - | - | - |
| 1777751654 | 10.56° C | 42% | 1015.2 hPa | 0 mm | - | - | - |
| 1777750969 | 11.67° C | 43% | 1015.2 hPa | 0 mm | - | - | - |
| 1777746280 | 10.56° C | 43% | 1015.5 hPa | 0 mm | - | - | - |
* Rain since midnight (hover to see other rain measurements)
** Current wind speed in m/s (hover to see current wind gust speed)